Weather in Kutana

Russia / Sakha (Yakutia) Republic     59°00′51″N   131°45′01″E
temp.,
°C
wind,
m/s
gust,
m/s
humid.,
%
clouds,
%
prec.,
mm/h
press.,
hPa
HPBL,
m
21 january, fri
fri2100:00−32sse11988 0.0 103819
03:00−33s00979 0.0 103818
06:00−33ssw009614 0.0 103818
09:00−32ssw019485 0.0 103931
12:00−25wsw018994 0.0 1037141
15:00−24ene009561 0.1 103625
18:00−28se1110059 0.0 10379
21:00−29sse119981 0.0 103613
22 january, sat
sat2200:00−29sse119948 0.0 103513
03:00−26sw119683 0.0 103548
06:00−24s129990 0.1 103442
09:00−22ssw129998 0.3 103460
12:00−17sw269399 0.2 1032282
15:00−15wsw3895100 0.4 1031392
18:00−15w3996100 0.2 1031353
21:00−15w3896100 0.6 1032389
23 january, sun
sun2300:00−16w3996100 0.4 1031434
03:00−16w4995100 0.9 1031481
06:00−16w41095100 0.4 1030528
09:00−15w41094100 0.8 1029561
12:00−14w41092100 0.4 1027720
15:00−13w4993100 1.0 1026888
18:00−14w3995100 0.4 1026682
21:00−14w4994100 0.9 1026790
24 january, mon
mon2400:00−15w4995100 0.6 1026688
03:00−15w4995100 1.3 1025708
06:00−16w4995100 0.7 1025719
09:00−16wnw3895100 1.3 1025738
12:00−15w4892100 0.4 1025775
15:00−15w3893100 0.9 1025694
18:00−16w2797100 0.4 1025330
21:00−16wnw2797100 0.8 1025327
25 january, tue
tue2500:00−17wsw1299100 0.3 102542
03:00−16w2698100 0.6 1025173
06:00−15w2896100 0.3 1024387
09:00−14w2896100 0.7 1023435
12:00−13w3891100 0.4 1022594
15:00−12w2794100 0.8 1022687
18:00−12w3896100 0.4 1022550
21:00−14wnw3895100 0.9 1023578